Bogalusa, LA

7:23 PM CDT on June 28, 2017 (GMT -0500)
Carr Memorial

Weather History for KBXA - November, 2013

Change the Weather History Date:

Monday, November 11, 2013

  Actual Average Record
Temperature  
Mean Temperature 60 °F -  
Max Temperature 76 °F 70 °F 81 °F (2014)
Min Temperature 44 °F 44 °F 44 °F (2013)
Degree Days  
Heating Degree Days 5    
Growing Degree Days 10 (Base 50)    
Moisture  
Dew Point 48 °F    
Average Humidity 72    
Maximum Humidity 92    
Minimum Humidity 31    
Precipitation  
Precipitation 0.00 in - - ()
Sea Level Pressure  
Sea Level Pressure 30.22 in    
Wind  
Wind Speed 0 mph (NNE)    
Max Wind Speed 5 mph    
Max Gust Speed -    
Visibility 10 miles    
Events      
Averages and records for this station are not official NWS values.
T = Trace of Precipitation, MM = Missing Value Source: NWS Daily Summary

Daily Weather History Graph

Daily Weather History Graph

Search for Another Location

Airport or City:

Trip Planner

Search our weather history database for the weather conditions in past years. The results will help you decide how hot, cold, wet, or windy it might be!

Date:

Astronomy

Nov. 11, 2013 Rise Set
Actual Time 6:22 AM CST 5:03 PM CST
Civil Twilight 5:57 AM CST 5:29 PM CST
Nautical Twilight 5:28 AM CST 5:58 PM CST
Astronomical Twilight 4:59 AM CST 6:26 PM CST
Moon 1:23 PM CST (11/11) 12:32 AM CST (11/11)
Length of Visible Light 11h 31m
Length of Day
10h 41m
Waxing Gibbous, 66% of the Moon is Illuminated
Nov 11
Waxing Gibbous
Nov 17
Full
Nov 25
Last Quarter
Dec 2
New
Dec 9
First Quarter

Hourly Weather History & Observations

Time (CST) Temp. Dew Point Humidity Pressure Visibility Wind Dir Wind Speed Gust Speed Precip Events Conditions
12:15 AM 50.4 °F 47.7 °F 90% 30.24 in 10.0 mi Calm Calm - N/A   Clear
12:55 AM 48.7 °F 46.2 °F 91% 30.25 in 1.2 mi Calm Calm - N/A   Mist
1:15 AM 48.4 °F 45.7 °F 90% 30.25 in 10.0 mi Calm Calm - N/A   Unknown
1:55 AM 48.4 °F 45.9 °F 91% 30.24 in 10.0 mi Calm Calm - N/A   Unknown
2:15 AM 48.0 °F 45.5 °F 91% 30.23 in 10.0 mi Calm Calm - N/A   Unknown
2:35 AM 46.2 °F 43.5 °F 90% 30.23 in 10.0 mi Calm Calm - N/A   Unknown
2:55 AM 46.6 °F 44.2 °F 92% 30.23 in 10.0 mi Calm Calm - N/A   Unknown
3:15 AM 46.6 °F 44.1 °F 91% 30.23 in 10.0 mi Calm Calm - N/A   Unknown
3:35 AM 46.2 °F 43.7 °F 91% 30.23 in 10.0 mi Calm Calm - N/A   Unknown
3:55 AM 45.3 °F 42.8 °F 91% 30.23 in 5.0 mi Calm Calm - N/A   Mist
4:15 AM 44.8 °F 42.3 °F 91% 30.23 in 7.0 mi Calm Calm - N/A   Unknown
4:35 AM 45.7 °F 43.2 °F 91% 30.23 in 10.0 mi Calm Calm - N/A   Unknown
4:55 AM 45.3 °F 42.8 °F 91% 30.23 in 10.0 mi Calm Calm - N/A   Unknown
5:15 AM 45.0 °F 42.4 °F 91% 30.23 in 10.0 mi Calm Calm - N/A   Unknown
5:35 AM 45.5 °F 43.0 °F 91% 30.23 in 10.0 mi Calm Calm - N/A   Unknown
5:55 AM 44.8 °F 42.4 °F 91% 30.24 in 10.0 mi Calm Calm - N/A   Unknown
6:15 AM 45.0 °F 42.8 °F 92% 30.24 in 10.0 mi Calm Calm - N/A   Unknown
6:35 AM 44.8 °F 42.3 °F 91% 30.24 in 10.0 mi Calm Calm - N/A   Unknown
6:55 AM 44.8 °F 42.3 °F 91% 30.25 in 10.0 mi Calm Calm - N/A   Unknown
7:15 AM 47.1 °F 44.4 °F 90% 30.26 in 10.0 mi Calm Calm - N/A   Unknown
7:35 AM 50.7 °F 47.3 °F 88% 30.26 in 10.0 mi Calm Calm - N/A   Unknown
7:55 AM 53.2 °F 48.2 °F 83% 30.26 in 10.0 mi Calm Calm - N/A   Unknown
8:15 AM 55.2 °F 48.6 °F 78% 30.26 in 10.0 mi Calm Calm - N/A   Unknown
8:35 AM 58.6 °F 49.5 °F 72% 30.27 in 10.0 mi Calm Calm - N/A   Unknown
8:55 AM 61.0 °F 48.7 °F 64% 30.27 in 10.0 mi Calm Calm - N/A   Unknown
9:15 AM 63.0 °F 50.2 °F 63% 30.27 in 10.0 mi Calm Calm - N/A   Unknown
9:35 AM 66.2 °F 49.8 °F 55% 30.27 in 10.0 mi ESE 4.6 mph - N/A   Unknown
9:55 AM 68.5 °F 49.1 °F 50% 30.27 in 10.0 mi North - - N/A   Unknown
10:15 AM 70.3 °F 49.6 °F 48% 30.26 in 10.0 mi North - - N/A   Unknown
10:35 AM 72.0 °F 48.2 °F 43% 30.26 in 10.0 mi North - - N/A   Unknown
10:55 AM 72.9 °F 48.0 °F 41% 30.26 in 10.0 mi SSE 3.5 mph - N/A   Unknown
11:15 AM 74.3 °F 45.3 °F 36% 30.25 in 10.0 mi North - - N/A   Unknown
11:35 AM 75.6 °F 46.6 °F 36% 30.24 in 10.0 mi South 4.6 mph - N/A   Unknown
11:55 AM 75.0 °F 46.9 °F 37% 30.23 in 10.0 mi SE 3.5 mph - N/A   Unknown
12:15 PM 75.2 °F 47.5 °F 37% 30.22 in 10.0 mi Calm Calm - N/A   Unknown
12:35 PM 75.7 °F 47.7 °F 37% 30.20 in 10.0 mi Calm Calm - N/A   Unknown
12:55 PM 76.1 °F 47.7 °F 37% 30.19 in 10.0 mi NNW 3.5 mph - N/A   Unknown
1:15 PM 76.3 °F 45.7 °F 34% 30.19 in 10.0 mi Calm Calm - N/A   Unknown
1:35 PM 76.1 °F 45.7 °F 34% 30.18 in 10.0 mi Calm Calm - N/A   Unknown
1:55 PM 76.1 °F 45.5 °F 34% 30.17 in 10.0 mi Calm Calm - N/A   Clear
2:15 PM 76.8 °F 44.4 °F 32% 30.17 in 10.0 mi Calm Calm - N/A   Clear
2:35 PM 76.5 °F 43.7 °F 31% 30.16 in 10.0 mi Calm Calm - N/A   Unknown
2:55 PM 75.9 °F 43.5 °F 31% 30.16 in 10.0 mi Calm Calm - N/A   Unknown
3:15 PM 76.1 °F 44.4 °F 32% 30.16 in 10.0 mi Calm Calm - N/A   Unknown
3:35 PM 75.9 °F 47.7 °F 37% 30.16 in 10.0 mi Calm Calm - N/A   Unknown
3:55 PM 74.5 °F 49.1 °F 41% 30.16 in 10.0 mi North 3.5 mph - N/A   Clear
4:15 PM 73.6 °F 50.2 °F 44% 30.16 in 10.0 mi Calm Calm - N/A   Clear
4:35 PM 68.5 °F 56.7 °F 66% 30.16 in 10.0 mi North 3.5 mph - N/A   Clear
4:55 PM 66.9 °F 56.1 °F 68% 30.16 in 10.0 mi Calm Calm - N/A   Clear
5:15 PM 64.9 °F 56.8 °F 75% 30.17 in 10.0 mi Calm Calm - N/A   Clear
5:35 PM 62.6 °F 56.5 °F 80% 30.17 in 10.0 mi Calm Calm - N/A   Unknown
5:55 PM 60.8 °F 55.6 °F 83% 30.17 in 10.0 mi Calm Calm - N/A   Unknown
6:15 PM 60.3 °F 55.0 °F 83% 30.18 in 10.0 mi Calm Calm - N/A   Unknown
6:35 PM 58.6 °F 54.0 °F 84% 30.18 in 10.0 mi Calm Calm - N/A   Unknown
6:55 PM 58.3 °F 54.1 °F 86% 30.19 in 10.0 mi Calm Calm - N/A   Clear
7:15 PM 57.4 °F 53.2 °F 86% 30.19 in 10.0 mi Calm Calm - N/A   Clear
7:35 PM 57.0 °F 52.9 °F 86% 30.19 in 10.0 mi NNW 3.5 mph - N/A   Clear
7:55 PM 56.3 °F 52.5 °F 87% 30.20 in 10.0 mi Calm Calm - N/A   Unknown
8:15 PM 55.6 °F 52.2 °F 88% 30.20 in 10.0 mi Calm Calm - N/A   Unknown
8:35 PM 55.6 °F 52.0 °F 88% 30.21 in 10.0 mi Calm Calm - N/A   Unknown
8:55 PM 53.6 °F 50.5 °F 89% 30.21 in 7.0 mi Calm Calm - N/A   Clear
9:15 PM 53.8 °F 50.7 °F 89% 30.22 in 10.0 mi Calm Calm - N/A   Clear
9:35 PM 53.4 °F 50.4 °F 89% 30.22 in 10.0 mi Calm Calm - N/A   Clear
9:55 PM 52.3 °F 49.5 °F 90% 30.22 in 10.0 mi Calm Calm - N/A   Clear
10:15 PM 51.1 °F 48.0 °F 89% 30.22 in 10.0 mi Calm Calm - N/A   Clear
10:35 PM 50.4 °F 47.5 °F 90% 30.22 in 10.0 mi North 3.5 mph - N/A   Clear
10:55 PM 50.0 °F 47.1 °F 90% 30.22 in 10.0 mi Calm Calm - N/A   Unknown
11:15 PM 50.2 °F 47.5 °F 90% 30.21 in 10.0 mi Calm Calm - N/A   Unknown
11:35 PM 50.7 °F 47.8 °F 90% 30.21 in 10.0 mi Calm Calm - N/A   Unknown
11:55 PM 50.0 °F 46.9 °F 89% 30.21 in 10.0 mi Calm Calm - N/A   Unknown